User: anonymous   Login
Location: Brookview Estates
(36.0476°N, 86.6931°W)
Time: 12:08:46
(UTC+00:00)
Language:

SeaSat 1 - Orbit

View from above orbital plane
View from above orbital plane
View from above satellite
View from above satellite

Ground track
Ground track

The orbit data is extracted from the following two-line orbital elements,

1 10967U 78064A   20191.01571690 -.00000091  00000-0  13421-4 0  9996
2 10967 108.0024 116.0366 0001697 311.7174  48.3825 14.43825968207931
Epoch (UTC): 09 July 2020 00:22:37
Eccentricity: 0.0001697
inclination: 108.0024°
perigee height: 744 km
apogee height: 747 km
right ascension of ascending node: 116.0366°
argument of perigee: 311.7174°
revolutions per day: 14.43825968
mean anomaly at epoch: 48.3825°
orbit number at epoch: 20793

The dashed part of the orbit path shows where the satellite is in the earth's shadow,  

DLR